カタログに戻る

STARLINK-30230

運用中通信VLEO
NORAD 57503·PAYLOAD·🇺🇸 United States

打ち上げ Aug 7, 2023 から Cape Canaveral Space Force Station

Loading…

次のパス (今後24時間)

TLE

最新Source: CelesTrak SupGP

元期: Sep 14, 2026, 21:06 UTC

1 57503C 23113J   26257.87965278  .00025974  00000+0  94044-3 0  2571
2 57503  43.0025  27.5725 0001668 272.9718 306.7297 15.27577141    16

AllMySatでSTARLINK-30230をリアルタイム追跡

Download on the App Store